Hourly Weather Roundup
Issued by NWS Central Illinois

Home | Current Version | Previous Version | Text Only | Print | Product List | Glossary On
Versions: 1 2 3 4 5 6 7 8 9 10 11 12 13 14 15 16 17 18 19 20 21 22 23 24 25 26 27 28 29 30 31 32 33 34 35 36 37 38 39 40 41 42 43 44 45 46 47 48 49 50
000
NZUS43 KILX 210910
HWRILX

AREA WEATHER ROUNDUP
NATIONAL WEATHER SERVICE, LINCOLN IL
400 AM CDT THU AUG 21 2014


CITY           SKY/WX    TMP DP  RH WIND       PRES   REMARKS
BLOOMINGTON    PTCLDY    69  67  93 S8        29.95F
CHAMPAIGN      PTCLDY    70  68  93 S3        29.96S
DECATUR        CLEAR     74  70  87 SW14      29.95S
FLORA          CLOUDY    72  70  94 S8        30.00S
GALESBURG      MOCLDY    72  70  95 S6        29.92S
JACKSONVILLE   CLEAR     75  72  91 S8        29.96R
LACON          PTCLDY    70  68  93 SE5       29.92F
LAWRENCEVILLE  CLOUDY    72  67  84 SW9       29.99R
LITCHFIELD     PTCLDY    72  71  98 S7        29.98S
$$


CITY           SKY/WX    TMP DP  RH WIND       PRES   REMARKS
LINCOLN        MOCLDY    73  70  92 CALM      29.91F
MACOMB         PTCLDY    72  70  95 S6        29.95S
MATTOON        CLOUDY    72  67  84 S9        29.97R
MT CARMEL AP   CLOUDY    73  70  88 S8        29.99F
OLNEY-NOBLE AP MOCLDY    72  70  94 CALM      30.00R
PARIS          CLOUDY    71  70  95 S5        29.98S
PEORIA         LGT RAIN  73  69  87 S6        29.93F
PONTIAC        MOCLDY    72  72 100 CALM      29.94F
RANTOUL        PTCLDY    73  67  82 CALM      29.97R
ROBINSON       MOCLDY    70  68  94 S6        29.99S
SPRINGFIELD    PTCLDY    76  72  87 SW8       29.94F
TAYLORVILLE    PTCLDY    72  70  94 S10       29.95F
$$

...REGIONAL REPORTS...


CITY           SKY/WX    TMP DP  RH WIND       PRES   REMARKS
CHICAGO O`HARE CLOUDY    71  65  81 CALM      29.94F
KANKAKEE       MOCLDY    70  68  96 CALM      29.95F
MOLINE         MOCLDY    71  69  93 E5        29.89F
MOUNT VERNON   MOCLDY    73  68  83 SE7       30.01S
PITTSFIELD     CLEAR     74  71  90 S5        29.96S
QUINCY         CLEAR     73  70  90 S9        29.93S
ROCKFORD       TSTM      71  67  87 E5        29.94F
$$


CITY           SKY/WX    TMP DP  RH WIND       PRES   REMARKS
BURLINGTON     CLEAR     74  71  91 S8        29.91S
CEDAR RAPIDS   CLOUDY    71  71 100 SE7       29.86F FOG
DES MOINES     MOCLDY    77  71  82 S8        29.83R
KIRKSVILLE     CLEAR     75  68  78 S8        29.92S
OTTUMWA        PTCLDY    75  71  87 S6        29.87S
ST LOUIS       PTCLDY    78  71  79 SW3       29.98R HX  80
$$


CITY           SKY/WX    TMP DP  RH WIND       PRES   REMARKS
TERRE HAUTE    CLOUDY    72  67  84 S3        29.99R
EVANSVILLE     LGT RAIN  73  70  90 CALM      30.02F
INDIANAPOLIS   CLOUDY    72  68  87 S7        30.00R
LAFAYETTE      CLOUDY    70  68  93 E3        29.98R
MADISON        MOCLDY    70  67  90 S6        29.92S
MILWAUKEE      MOCLDY    66  62  87 CALM      29.94S
$$





USA.gov is the U.S. government's official web portal to all federal, state and local government web resources and services.